Location: Oulou
(10.7667°N, 12.5167°W)
Time: 19:47:57
(UTC+00:00)

Cosmos 2360 Rocket - Pass Details

Date: 20 September 2019
Orbit: 833 x 846 km, 71.0° (Epoch: 20 October)

Event Time Altitude Azimuth Distance (km) Brightness Sun altitude
Rises 20:07:03 0° 331° (NNW) 3,390 5.8 -20.3°
Reaches altitude 10° 20:09:37 10° 324° (NW) 2,457 5.2 -20.9°
Maximum altitude 20:14:50 40° 256° (WSW) 1,231 3.5 -22.2°
Drops below altitude 10° 20:20:05 10° 188° (S) 2,460 4.6 -23.5°
Sets 20:22:40 0° 180° (S) 3,395 5.3 -24.1°
